Temp
24 24 23 22 21 17 21 22 23 24 23 23 24 23 21 20 23 21 18 19 19 19 19 19 19 19 20 20 19 19 19 19 19 19 19 19 18 19 19 19 19 18 18 18 18 18 18 18 18
24 23 23 17 19 20 21 22 25 24 22 22 21 21 21 20 20 19 19 18 18 18 18 19 18 18 18 19 18 18 18 18 18 18 18 18 18 18 18 18 18 18 18 18 18 18 18 18 18
24 23 20 17 15 19 22 24 23 22 22 22 19 19 20 19 19 19 18 18 18 18 18 18 18 18 18 18 18 18 18 17 17 18 18 18 18 18 18 18 18 18 18 17 17 17 17 17 18
24 20 18 20 21 21 23 25 22 21 22 20 20 20 18 18 19 18 18 18 18 17 17 18 17 17 17 17 17 17 18 18 17 17 17 17 17 17 17 17 17 17 17 17 17 17 17 17 18
22 18 19 20 21 22 23 24 22 23 22 21 21 18 18 18 18 18 18 17 17 17 17 17 17 17 17 17 17 17 17 17 17 17 17 17 17 17 17 17 17 17 16 16 16 16 16 17 16
20 18 19 20 21 23 23 23 23 23 22 20 19 18 18 17 17 17 17 17 17 17 17 16 16 16 16 16 17 17 17 17 16 16 16 16 17 17 16 16 16 16 16 16 16 16 16 16 16
22 19 21 21 21 23 25 23 24 22 21 21 20 18 17 17 17 17 17 17 17 16 16 15 16 16 16 16 17 17 17 16 17 17 17 17 16 16 16 16 16 16 16 16 16 16 16 16 16
19 19 21 21 22 24 26 25 24 24 21 20 19 19 18 18 16 16 16 17 16 16 16 15 15 16 16 16 16 16 16 16 16 16 16 16 16 16 15 15 15 15 15 15 15 16 15 15 15
20 20 20 23 23 24 25 25 21 20 19 19 19 19 19 16 15 15 15 15 15 15 15 15 15 15 16 16 15 16 16 16 16 16 16 16 15 15 15 15 15 15 15 15 15 15 15 15 15
21 19 21 22 24 24 24 24 21 20 19 19 18 17 16 15 15 15 14 14 15 16 15 15 15 15 15 16 15 15 15 16 16 16 16 16 15 15 14 14 14 14 14 14 14 14 14 14 14
21 20 22 24 23 23 23 23 21 20 19 20 18 16 16 16 15 15 15 15 15 16 15 15 15 15 15 15 15 16 16 16 16 15 15 15 15 14 14 14 13 13 13 13 13 13 13 13 13
22 22 22 23 24 22 24 22 21 20 22 20 18 16 16 16 15 15 15 14 15 15 15 14 14 15 15 15 15 15 15 15 15 14 14 14 14 14 13 12 12 12 11 12 12 12 12 12 11
21 21 22 22 21 21 22 22 22 19 18 17 16 16 16 16 15 14 14 15 15 15 14 14 14 14 14 14 14 14 14 14 14 14 13 14 14 13 12 11 11 11 11 11 11 12 12 12 11
21 20 20 21 22 23 24 22 22 19 16 16 16 16 16 16 14 13 13 13 13 14 14 14 14 14 14 14 13 13 13 13 13 13 12 12 13 12 12 11 11 10 10 10 11 11 11 11 10
21 19 19 21 22 22 21 22 21 17 16 16 16 16 15 15 14 14 13 12 13 13 14 14 13 13 13 13 13 12 12 12 12 12 11 11 12 11 11 10 9 9 9 9 10 10 10 11 9
20 19 18 22 23 23 22 21 22 15 16 15 16 16 15 15 14 14 13 13 13 14 13 13 13 13 13 13 12 12 11 11 11 10 10 10 10 10 10 9 8 8 8 8 8 9 9 10 9
18 17 19 21 22 23 21 21 22 15 16 15 16 15 15 14 14 13 14 14 13 13 13 13 13 12 12 11 11 11 10 10 10 9 9 9 9 9 9 8 7 7 7 7 7 8 8 8 8
17 17 18 18 22 21 20 19 19 16 16 16 16 15 15 15 15 14 13 13 13 13 13 13 12 12 11 11 10 9 9 9 8 8 8 8 8 8 8 7 6 6 7 6 6 5 5 5 6
19 18 17 19 21 20 19 18 19 18 16 15 14 14 15 15 15 13 12 13 13 12 12 12 12 11 11 10 9 8 8 7 7 7 7 7 7 7 7 6 5 5 5 4 4 3 2 3 5
17 17 17 18 20 18 18 17 18 17 16 17 16 15 15 15 12 11 11 11 11 11 12 12 11 11 10 10 9 9 8 7 7 6 6 6 6 6 6 5 5 4 4 3 3 2 1 0 1
17 17 17 18 20 18 18 18 19 19 17 18 18 17 16 15 13 11 10 10 10 10 10 11 11 11 11 11 9 8 8 6 6 5 5 5 5 5 5 4 4 3 3 2 1 1 1 -0 -0
17 18 19 18 18 17 19 18 20 20 18 17 18 18 16 15 14 12 11 9 9 9 10 11 11 11 11 10 10 9 7 5 5 5 5 4 4 4 4 4 3 2 2 1 1 0 0 0 -1
18 20 19 19 17 16 18 15 18 19 18 18 18 17 17 15 14 13 11 11 10 9 10 11 11 10 10 10 10 9 8 7 6 5 4 4 3 3 3 3 3 2 1 1 0 -0 -1 -1 -2
20 18 17 17 15 17 18 18 19 20 20 20 18 17 17 16 15 14 12 11 9 9 9 10 10 10 10 10 10 10 9 7 5 4 4 3 3 2 2 3 2 1 1 -0 -1 -1 -2 -2 -2
18 17 15 15 14 17 19 18 20 21 21 21 21 17 17 16 14 13 11 10 9 7 7 9 9 8 9 9 9 9 9 8 6 5 4 3 2 2 2 2 1 0 -0 -1 -1 -2 -2 -2 -3
17 18 16 15 16 17 18 16 18 20 19 19 19 18 16 14 14 13 12 10 9 8 7 8 8 8 9 9 9 9 8 8 6 5 4 4 3 2 1 1 0 -0 -1 -2 -2 -2 -3 -3 -3
17 16 18 16 16 15 16 17 19 20 19 17 16 16 15 14 14 14 12 10 9 8 7 7 7 7 8 8 8 8 8 7 6 5 4 3 3 2 1 0 0 -1 -1 -2 -2 -3 -3 -3 -4
17 17 16 14 14 14 14 15 16 14 13 14 14 14 14 13 13 12 11 10 9 8 7 7 7 7 7 8 8 7 7 6 6 4 4 3 2 1 0 -0 -0 -1 -2 -2 -3 -3 -4 -4 -4
15 14 14 15 13 14 14 14 14 12 12 12 12 13 12 11 11 10 9 9 8 8 7 7 7 6 6 7 7 6 6 5 5 4 3 3 2 1 0 -0 -1 -1 -2 -3 -3 -4 -4 -4 -5
13 13 11 12 12 10 11 12 13 12 13 13 14 13 12 11 10 8 8 8 8 8 7 7 7 6 5 7 6 6 5 5 4 3 3 2 2 1 0 -0 -1 -1 -2 -3 -3 -4 -5 -5 -5
Height
760 758 757 760 790 802 801 787 769 767 766 757 756 768 776 781 784 803 786 787 789 792 795 797 800 801 801 803 804 805 806 808 808 809 810 811 812 812 812 812 813 814 814 814 814 814 814 813 813
760 759 758 772 802 813 801 776 768 760 759 758 763 769 775 784 777 781 786 789 791 794 796 798 800 802 802 803 805 806 807 808 810 811 812 813 813 813 813 813 814 814 814 814 815 814 814 814 813
759 759 767 788 815 810 792 763 763 762 758 760 771 771 773 779 779 780 783 787 793 795 798 799 801 802 803 804 806 807 808 808 810 812 813 814 814 814 814 814 814 814 814 814 814 814 814 813 813
758 761 774 790 793 783 773 754 758 763 761 762 766 776 777 777 777 780 783 787 792 795 798 799 801 802 803 804 805 805 807 809 811 812 813 814 814 814 814 815 814 814 814 814 814 814 814 813 813
760 770 792 795 789 773 761 752 754 760 760 765 765 781 781 778 778 780 783 788 791 794 797 800 802 803 803 803 804 806 808 810 811 814 814 814 815 814 814 814 815 815 815 815 815 814 814 813 812
770 776 797 801 788 768 756 749 751 757 759 765 770 776 779 777 778 780 783 788 792 795 797 799 801 802 802 803 805 807 809 810 812 813 814 815 815 816 816 816 816 816 816 816 816 815 815 814 814
770 784 790 787 785 772 754 746 752 758 762 764 764 779 779 777 778 780 784 788 791 794 797 799 800 801 803 805 806 807 808 810 812 814 815 815 816 816 817 817 817 817 817 817 817 816 816 815 814
767 776 785 782 782 774 749 746 745 747 759 756 761 772 777 773 777 781 785 785 790 794 796 798 801 802 802 805 807 808 809 811 812 813 814 816 817 817 818 818 818 818 818 817 817 817 816 816 815
760 784 792 775 774 763 750 752 750 752 756 758 759 761 762 769 776 780 781 786 790 793 795 798 801 803 804 804 806 808 809 811 812 813 815 816 817 817 817 818 818 818 818 818 817 817 816 815 814
768 785 778 762 757 757 749 749 752 757 761 760 760 761 762 768 774 774 779 784 787 790 793 796 800 804 805 805 806 807 809 810 812 813 814 815 817 818 818 818 818 818 819 818 817 816 816 814 813
765 775 761 754 752 751 750 747 748 757 766 753 753 758 762 767 771 773 776 779 785 790 792 795 798 802 805 805 805 806 808 810 811 814 814 816 816 818 819 819 819 819 819 818 818 817 816 815 813
768 757 756 752 747 751 749 746 751 749 743 742 746 754 759 761 765 768 771 777 783 789 793 795 796 799 803 805 805 806 808 810 811 813 815 816 816 817 818 818 819 819 819 818 817 816 816 815 813
764 758 752 748 750 748 744 747 747 748 742 740 746 752 756 762 765 769 771 776 782 786 791 794 796 797 800 804 805 807 808 810 811 813 815 816 816 816 818 819 819 819 818 817 816 816 815 814 812
757 757 754 748 745 743 744 745 744 744 745 747 747 750 754 757 760 766 769 772 777 783 787 791 795 796 798 803 806 807 810 810 812 813 815 816 816 816 818 818 818 818 818 817 816 815 813 812 812
755 763 753 745 738 741 740 748 747 743 746 748 749 750 753 755 759 759 765 769 774 780 785 789 794 795 796 800 805 808 810 812 813 814 816 816 817 817 818 819 818 819 819 817 816 814 813 812 811
762 762 770 741 736 734 737 757 735 742 744 749 749 751 752 753 755 760 762 766 773 777 782 786 790 794 796 798 803 807 809 812 814 815 815 816 817 818 818 819 819 819 818 817 815 814 812 811 809
769 778 767 751 736 737 742 750 733 743 743 747 747 747 749 754 756 756 757 762 769 775 780 783 789 791 795 799 803 807 809 811 814 816 816 816 817 819 818 818 819 819 818 816 815 813 812 810 809
776 775 767 765 742 741 749 750 737 740 741 739 742 747 749 750 746 752 755 760 768 773 778 782 787 791 794 798 803 806 809 811 814 816 816 817 818 819 819 819 819 820 818 816 815 814 814 812 810
761 764 769 756 741 746 749 747 737 731 739 742 743 744 744 741 745 750 754 759 765 771 775 779 783 788 790 795 800 804 807 812 814 816 817 818 819 820 820 820 820 819 817 816 816 816 816 813 811
766 768 764 753 738 747 744 742 731 730 729 725 728 733 733 738 744 749 753 757 759 764 769 774 779 783 787 790 796 801 806 811 813 814 816 817 818 819 819 819 818 817 817 817 817 817 816 816 814
760 766 760 758 738 739 740 734 727 718 719 716 716 717 724 728 733 740 745 749 756 760 764 770 775 780 784 788 794 800 805 809 812 814 816 818 818 819 819 818 818 817 817 817 818 817 817 817 818
761 747 748 750 752 758 736 739 719 716 717 716 709 710 712 716 723 729 735 742 746 754 761 766 771 776 781 785 788 792 795 802 806 809 811 814 817 819 819 819 819 818 818 818 819 819 818 818 819
748 737 743 744 753 753 741 756 718 709 716 710 705 702 703 704 708 714 719 726 737 745 753 761 767 773 777 781 784 788 793 798 803 807 809 812 815 817 818 818 818 818 818 819 820 819 819 819 820
735 743 745 745 754 748 738 742 705 706 702 696 696 695 696 698 702 710 718 727 732 740 746 753 759 766 772 776 780 783 788 794 800 805 808 811 813 815 816 815 817 817 818 820 820 820 821 822 822
739 752 769 767 766 736 721 729 703 694 688 685 683 689 688 692 701 706 712 718 725 729 736 745 753 759 766 771 776 780 784 789 794 799 803 807 809 812 813 816 816 817 819 819 820 822 822 824 823
734 737 756 762 750 736 725 723 707 689 689 686 685 686 687 690 692 696 700 708 716 723 730 737 744 752 760 766 771 776 780 785 790 795 800 804 807 810 813 815 817 816 819 820 821 823 823 823 823
731 739 727 741 741 747 728 706 693 685 689 694 697 696 696 693 688 688 699 705 713 720 725 732 741 748 755 761 766 771 777 782 786 792 799 802 806 808 810 814 815 816 818 820 821 822 824 823 823
730 729 739 748 746 745 726 720 715 716 716 711 708 704 699 695 690 690 694 701 709 716 723 731 736 742 749 757 764 768 772 778 783 790 795 799 803 806 808 813 814 815 817 819 821 823 824 822 822
743 748 744 737 743 736 734 724 719 722 722 721 718 712 708 701 698 699 702 706 711 717 721 727 733 739 745 750 758 764 770 774 779 786 791 797 801 804 806 810 811 813 815 818 820 822 823 824 820
746 746 759 750 747 760 750 727 713 714 715 716 710 708 704 703 702 704 706 709 712 716 720 723 729 735 739 746 751 757 764 771 777 782 786 792 796 801 805 807 810 812 814 816 818 819 820 820 817
Wind_Speed
9 5 2 4 4 5 3 6 3 5 4 2 10 5 7 4 3 4 11 10 17 18 17 15 14 13 13 13 12 12 12 12 12 11 11 11 10 10 10 10 10 9 9 10 9 8 9 9 10
6 1 3 3 4 3 5 3 4 3 3 10 10 3 4 3 2 9 10 15 17 17 16 15 13 13 13 12 12 12 12 12 11 11 11 10 10 9 10 10 9 8 8 8 7 7 8 9 9
1 1 3 4 4 4 4 4 5 2 7 3 5 4 3 6 4 5 18 20 18 17 15 14 13 13 12 12 11 11 11 11 11 10 9 8 8 7 8 9 8 8 8 8 8 7 6 7 8
1 4 4 3 4 6 5 2 5 9 3 5 3 6 1 1 5 11 24 22 21 19 16 15 14 14 14 13 13 12 11 11 11 10 11 10 10 9 9 8 7 8 7 9 8 8 8 6 6
4 3 3 1 5 5 6 2 10 5 6 4 2 5 2 2 15 24 23 22 21 19 17 15 15 14 13 13 13 10 12 12 13 12 11 12 11 12 11 11 11 10 10 10 10 10 10 10 8
3 3 3 2 6 5 7 7 6 3 3 5 5 6 4 10 18 22 24 22 19 19 17 16 14 14 14 13 12 12 14 14 13 14 13 14 14 13 12 12 11 11 11 11 11 12 11 11 10
5 3 4 4 5 5 5 8 5 5 6 4 8 6 3 10 19 22 23 22 19 18 17 16 16 15 14 15 15 15 16 15 15 14 14 14 13 13 13 12 10 10 10 10 10 10 10 10 10
4 4 3 4 4 5 3 3 2 8 5 6 6 6 5 12 25 25 27 23 20 19 18 18 17 17 17 16 15 16 16 16 15 13 12 12 11 11 11 10 9 8 8 9 9 10 11 11 10
4 3 3 4 5 4 3 2 2 5 8 3 5 3 5 28 28 28 26 24 23 20 20 20 19 17 16 17 17 17 16 15 13 13 12 12 13 11 11 11 8 8 10 9 10 10 11 11 11
3 3 8 4 3 5 5 7 8 5 1 1 1 4 24 28 25 21 19 18 21 22 21 21 20 18 16 17 18 17 17 16 16 15 14 13 12 12 12 12 11 11 12 12 13 12 12 13 14
2 5 4 4 5 2 4 2 6 9 4 8 11 16 17 24 21 20 20 23 22 24 22 23 23 19 17 18 20 20 19 18 17 15 14 13 13 13 12 12 13 13 14 14 14 14 16 15 15
3 6 5 4 3 6 2 4 5 9 7 2 12 19 19 20 18 22 22 24 27 25 23 24 25 23 19 19 19 19 19 17 17 16 14 13 14 13 14 14 14 15 16 16 16 17 16 16 16
5 6 5 4 10 6 3 5 5 8 3 6 16 18 20 17 17 19 23 31 32 29 26 25 26 25 22 20 19 18 19 17 17 16 15 13 14 15 14 14 15 16 16 17 17 17 17 17 17
3 6 10 8 6 4 5 2 3 2 6 10 15 17 17 18 17 16 25 28 33 32 29 27 26 25 23 21 19 19 18 18 17 17 15 14 14 14 13 14 15 16 15 16 16 17 17 17 17
5 8 7 6 7 8 8 3 7 6 7 12 12 14 14 15 17 23 22 25 32 32 30 28 26 25 25 23 20 19 18 17 17 17 15 14 14 14 14 14 16 16 15 15 16 17 17 19 19
5 2 5 4 2 2 6 7 7 11 14 13 13 13 14 15 16 19 26 30 32 34 32 31 29 27 26 25 23 21 19 18 17 16 16 15 15 13 14 15 16 15 15 17 19 19 20 21 20
2 5 7 11 6 3 5 4 4 8 9 11 14 15 14 11 13 21 31 34 35 36 34 32 31 30 28 26 23 22 20 19 18 16 16 16 15 14 13 15 15 14 17 18 19 19 21 23 19
5 4 5 7 2 2 4 8 11 9 9 15 13 9 11 13 20 20 26 31 35 36 35 33 32 31 30 28 26 23 21 19 17 16 16 15 14 13 13 15 15 15 18 20 19 20 21 23 17
2 3 6 11 14 4 8 9 13 7 10 7 9 10 13 18 11 18 24 32 36 36 36 36 35 34 35 33 30 27 25 21 18 16 15 14 13 12 12 14 14 16 19 20 20 18 22 27 21
8 7 11 9 12 5 10 11 11 6 10 18 18 16 18 13 9 13 22 29 35 39 39 39 38 37 37 36 32 28 26 20 18 17 15 13 12 12 11 12 13 15 17 19 20 20 18 23 26
8 7 7 9 11 5 8 9 7 6 5 9 14 14 13 18 17 16 20 29 31 34 38 40 41 40 39 36 31 28 21 23 18 19 16 13 11 11 10 11 12 14 16 18 17 17 19 17 18
8 7 9 6 5 5 3 10 11 5 8 8 16 15 18 19 17 17 18 27 33 33 37 41 42 42 40 38 34 36 28 24 23 23 20 16 11 11 10 10 11 13 14 16 16 15 17 17 17
7 4 4 4 6 6 5 5 5 4 7 11 13 14 17 20 21 22 24 33 34 36 41 43 43 42 41 40 36 36 29 25 27 23 22 18 14 11 10 10 11 12 12 13 13 15 17 18 17
2 4 5 3 2 12 8 8 10 10 12 5 7 13 17 18 19 18 22 28 31 35 40 43 44 42 43 42 38 36 33 30 30 27 24 20 16 12 10 10 10 11 11 10 12 14 16 16 14
4 3 4 4 2 11 6 9 11 7 7 10 11 9 14 14 14 16 18 21 31 35 36 40 42 40 44 41 39 37 35 33 33 31 27 24 19 15 13 10 10 10 9 10 10 13 15 15 15
7 11 9 10 6 9 3 7 5 1 5 3 6 6 6 9 15 19 22 24 32 35 36 37 39 37 42 40 40 37 34 33 31 30 27 23 19 16 13 11 9 11 11 11 11 12 13 13 13
2 5 14 10 14 8 5 11 12 12 10 11 13 10 10 9 14 17 14 23 27 31 35 36 35 35 40 41 41 37 35 33 32 29 26 23 20 19 15 11 11 11 11 11 10 11 12 12 12
4 6 2 2 3 5 4 5 4 12 14 16 20 20 18 10 7 9 13 20 25 30 33 35 37 38 40 40 39 37 36 33 30 29 28 26 22 20 17 14 12 13 11 11 9 9 10 12 12
6 4 4 3 3 2 3 4 4 7 4 7 9 11 12 10 7 2 5 14 22 27 31 32 33 34 36 39 39 37 35 33 31 31 28 25 23 21 18 15 14 13 12 11 8 7 9 11 13
6 2 3 3 1 3 3 7 8 5 9 7 15 9 7 6 3 4 6 13 20 25 28 32 33 33 37 41 40 39 37 34 33 31 29 27 25 22 20 16 14 13 12 11 8 7 8 11 13
Wind_Direction
323 323 84 46 54 64 263 257 262 164 176 276 126 162 155 85 149 190 143 164 155 148 149 148 149 145 138 133 127 119 111 103 96 92 88 86 83 83 82 80 80 80 71 61 54 50 41 35 31
313 258 67 80 88 63 270 250 240 184 118 105 78 96 124 127 94 121 123 144 142 140 145 148 148 141 137 132 123 117 114 102 94 89 87 82 79 68 77 77 72 69 63 55 48 40 30 24 19
89 155 81 95 108 184 227 210 213 81 149 94 104 40 120 130 100 108 144 145 145 142 145 142 139 136 132 124 122 118 111 115 105 104 103 102 97 85 78 78 74 65 58 52 44 36 25 22 13
168 21 37 87 228 247 219 259 147 133 30 35 118 113 73 20 128 134 146 152 148 142 146 147 145 142 137 131 122 120 119 111 106 104 101 103 101 99 90 82 75 65 53 50 48 37 28 15 357
46 54 60 17 263 262 253 160 138 145 143 138 105 160 103 75 134 148 148 151 146 146 149 148 147 144 140 134 133 131 124 125 123 115 119 110 103 99 93 83 80 74 67 64 60 53 47 44 40
30 99 75 257 268 279 280 176 152 114 116 129 88 121 143 143 141 146 152 153 154 153 154 149 148 145 144 138 135 130 130 129 125 121 117 109 102 98 98 91 84 78 71 64 58 52 49 47 42
131 100 211 191 262 302 283 128 189 143 132 181 136 127 130 170 153 157 158 155 154 158 153 150 151 150 144 139 135 131 134 133 126 121 115 111 109 106 99 90 79 73 62 56 50 46 42 37 33
111 104 172 233 209 269 242 201 304 162 180 110 141 185 183 175 153 155 150 141 144 148 149 147 150 147 145 143 138 136 135 133 130 129 122 117 116 106 97 87 75 62 53 46 41 41 37 30 24
131 73 209 234 192 239 234 196 50 345 130 131 168 172 159 149 154 149 138 143 147 146 146 146 150 149 147 146 146 146 142 136 134 133 124 120 111 101 92 85 77 63 54 52 41 37 32 30 29
116 150 214 222 235 261 280 187 159 125 106 253 141 72 136 148 160 149 155 153 160 161 159 156 158 158 153 143 145 144 138 137 132 127 124 116 109 96 89 85 76 72 61 55 47 42 36 35 33
161 207 216 265 248 297 283 195 159 125 220 214 202 159 155 157 167 162 164 162 172 175 172 169 167 168 162 145 141 137 135 132 128 123 119 116 106 96 88 80 71 63 55 50 44 40 38 34 30
309 256 215 267 300 328 247 142 194 186 208 272 167 166 162 170 178 174 166 169 174 179 177 173 172 167 163 152 143 136 133 131 127 121 118 116 105 95 83 73 66 59 51 45 40 38 35 33 30
220 262 264 243 288 254 245 217 232 238 358 116 140 160 175 181 178 177 170 178 181 182 177 174 171 168 162 157 146 140 133 131 124 122 118 111 103 94 84 74 64 56 48 43 40 38 34 31 30
296 283 282 275 246 246 231 191 135 219 135 132 155 172 181 185 179 163 176 175 182 183 177 173 173 170 165 161 153 143 135 129 127 121 115 108 100 93 86 78 67 58 50 45 41 38 35 33 32
286 305 303 249 230 222 149 231 221 167 155 156 177 180 184 191 180 189 181 176 180 182 175 173 174 171 167 161 155 145 137 131 126 122 117 110 100 93 87 78 67 56 47 43 41 40 34 31 30
318 293 322 274 138 279 155 248 251 166 158 180 184 191 193 197 190 183 181 181 187 182 179 175 176 174 169 165 158 149 141 135 129 125 119 109 100 92 88 77 66 55 50 47 41 37 32 28 25
277 250 262 297 212 227 187 236 282 168 184 188 192 194 196 189 192 190 187 188 188 184 181 178 179 174 168 163 157 150 143 137 133 128 121 112 104 95 86 78 70 60 55 51 47 42 34 28 28
227 226 256 254 277 39 281 249 265 205 188 204 202 197 197 200 210 191 184 187 189 187 185 181 178 174 168 163 157 149 145 138 137 129 122 115 105 96 87 81 72 62 57 55 51 51 42 33 24
234 248 274 272 277 288 255 254 267 225 206 202 198 196 205 214 195 184 181 188 190 188 186 182 177 175 172 165 158 154 152 146 139 133 127 118 105 96 87 81 72 63 58 55 54 58 48 36 30
247 255 264 281 264 177 270 262 248 183 210 207 204 203 211 204 176 173 178 184 188 187 188 185 183 178 178 175 169 163 157 153 146 143 135 126 116 105 92 83 79 71 64 60 56 54 61 52 42
244 234 261 245 291 244 276 274 240 240 248 221 226 216 212 202 190 182 182 186 185 187 186 186 186 183 183 180 170 161 157 151 148 151 141 132 121 108 94 87 81 75 66 67 63 59 61 69 59
251 212 243 270 311 272 104 290 269 242 227 217 225 208 204 201 199 186 184 187 188 188 188 189 189 187 186 182 176 171 162 159 165 159 152 141 129 114 98 89 87 79 70 69 70 66 62 55 58
239 257 228 250 268 303 246 261 271 226 241 240 232 218 213 207 195 192 191 188 185 183 188 193 191 190 187 185 186 180 175 168 163 160 153 146 139 125 108 100 93 82 76 77 74 71 65 64 63
52 326 314 258 200 262 230 223 267 230 231 244 232 223 216 211 205 203 191 180 182 183 187 190 190 190 189 187 190 187 178 168 164 163 160 155 148 135 121 107 101 91 88 87 81 76 70 62 59
206 90 303 297 199 259 192 242 246 221 227 222 253 223 217 208 198 193 182 183 181 181 182 183 184 184 189 191 192 188 182 177 176 172 170 164 156 149 132 125 110 98 97 102 92 81 66 51 49
209 215 215 240 239 276 249 241 226 256 344 268 287 304 241 199 198 196 194 186 186 181 179 178 179 180 188 189 189 187 184 182 180 179 177 172 165 154 141 132 115 104 108 111 103 83 63 50 51
222 175 221 247 272 274 233 273 293 292 322 347 360 357 328 261 213 206 190 189 185 181 180 175 175 177 184 187 187 185 184 183 181 180 179 172 167 157 148 138 122 114 115 122 115 86 63 47 47
340 334 252 134 228 237 250 249 243 31 12 13 9 358 348 323 252 192 186 182 182 178 174 177 178 176 179 185 186 182 182 181 179 177 175 173 167 161 151 143 130 123 122 130 120 85 61 49 45
336 317 310 334 197 263 305 262 135 92 57 4 345 345 336 336 337 89 151 171 172 176 175 175 174 173 175 178 181 182 181 179 175 176 174 173 168 165 158 152 139 131 131 136 125 85 57 41 38
277 282 10 230 359 298 279 252 165 52 8 350 332 335 341 326 327 129 150 160 174 179 177 176 176 174 175 179 181 179 178 178 177 175 174 175 170 168 165 156 146 141 136 136 125 94 57 37 32